Regional Weather Roundup
Issued by NWS Sterling, VA

Home | Current Version | Previous Version | Graphics & Text | Print | Product List | Glossary On
Versions: 1 2 3 4 5 6 7 8 9 10 11 12 13 14 15 16 17 18 19 20 21 22 23 24 25 26 27 28 29 30 31 32 33 34 35 36 37 38 39 40 41 42 43 44 45 46 47 48 49 50
000
ASUS41 KLWX 180210
RWRLWX

REGIONAL WEATHER ROUNDUP
NATIONAL WEATHER SERVICE BALTIMORE MD/WASHINGTON DC
1000 PM EDT WED SEP 17 2014

Note: "FAIR" indicates few or no clouds below 12,000 feet
with no significant weather and/or obstructions to visibility.
 TC=TEMPERATURE CELSIUS

 * =Non NWS site. Station does not report precipitation (e.g. rain,
    snow, etc.), thunder, or fog.

DCZ001-MDZ009-015-VAZ040>042-051-053>054-180300-
WASHINGTON METRO

CITY           SKY/WX    TMP DP  RH WIND       PRES   REMARKS
WASHINGTON NAT CLEAR     67  49  52 SE3       29.99R
DULLES         PTCLDY    60  52  74 SE5       29.98R
ANDREWS AFB    CLEAR     59  51  76 CALM      29.98S
QUANTICO       CLEAR     68  56  65 SE9       29.99R
COLLEGE PARK*  CLEAR     59  55  88 CALM      29.98S
LEESBURG*      PTCLDY    59  57  94 CALM      29.99R
GAITHERSBURG*  CLEAR     57  52  82 SE3       30.02S

$$

MDZ006>007-011-014-180300-
BALTIMORE METRO

CITY           SKY/WX    TMP DP  RH WIND       PRES   REMARKS
BWI AIRPORT    CLEAR     57  53  86 CALM      29.98R
MD SCIENCE CTR   N/A     67  49  52 MISG      29.98S
MARTIN STATE   CLEAR     59  55  88 CALM      29.99R
ANNAPOLIS      CLEAR     63  57  81 CALM      29.97S
FORT MEADE*    CLEAR     54  52  94 CALM      30.00S

$$

MDZ012-015-019>023-180300-
MARYLAND EASTERN SHORE

CITY           SKY/WX    TMP DP  RH WIND       PRES   REMARKS
OCEAN CITY     CLEAR     54  52  93 CALM      29.98F
SALISBURY      CLEAR     60  53  77 CALM      29.98F
BAY BRIDGE AP*   N/A     63  52  67 CALM      29.98S
CAMBRIDGE*     CLEAR     61  54  77 CALM      29.98S

$$

MDZ017>025-180300-
SOUTHERN MARYLAND

CITY           SKY/WX    TMP DP  RH WIND       PRES   REMARKS
PATUXENT RIVER PTCLDY    56  52  86 W5        29.97S
ST INIGOES     CLEAR     56  50  80 CALM      29.97S
LEONARDTOWN*   CLEAR     55  50  82 CALM      29.99S

$$

MDZ003>005-180300-
NORTH CENTRAL MARYLAND

CITY           SKY/WX    TMP DP  RH WIND       PRES   REMARKS
FREDERICK*     CLEAR     57  54  88 CALM      30.01R
HAGERSTOWN APT CLEAR     60  50  69 E7        29.98R
WESTMINSTER*   CLEAR     57  52  82 CALM      29.99S

$$

MDZ501>502-180300-
WESTERN MARYLAND

CITY           SKY/WX    TMP DP  RH WIND       PRES   REMARKS
OAKLAND*       PTCLDY    54  50  87 CALM      30.04R
CUMBERLAND*    PTCLDY    61  52  72 N5        30.02S

$$

VAZ025>031-180300-
SHENANDOAH VALLEY

CITY           SKY/WX    TMP DP  RH WIND       PRES   REMARKS
WINCHESTER*    CLOUDY    61  52  72 CALM      29.98R
STAUNTON*      PTCLDY    58  52  79 CALM      30.02R

$$

WVZ021-048>050-054>055-180300-
EASTERN WEST VIRGINIA PANHANDLE

CITY           SKY/WX    TMP DP  RH WIND       PRES   REMARKS
MARTINSBURG    CLOUDY    58  51  78 CALM      29.98R
PETERSBURG*    MOCLDY    56  53  90 CALM      30.00R

$$

VAZ036>039-050-180300-
CENTRAL FOOTHILLS

CITY           SKY/WX    TMP DP  RH WIND       PRES   REMARKS
CHARLOTTESVILL CLEAR     60  55  83 CALM      29.98R
ORANGE*        CLEAR     55  52  88 CALM      30.00R

$$

VAZ055>057-180300-
NORTH AND CENTRAL PIEDMONT

CITY           SKY/WX    TMP DP  RH WIND       PRES   REMARKS
FREDERICKSBRG* CLEAR     60  56  84 NE3       29.97S
STAFFORD*      CLEAR     56  56 100 CALM      30.02R

$$

NCZ024-NYZ072-PAZ021-071-VAZ022-071-180300-
OTHER REGIONAL OBSERVATIONS

CITY           SKY/WX    TMP DP  RH WIND       PRES   REMARKS
NEW YORK CITY  CLEAR     64  46  52 CALM      30.01S
PHILADELPHIA   PTCLDY    64  52  64 S7        29.99R
PITTSBURGH     MOCLDY    58  50  75 CALM      29.99R
ROANOKE        CLEAR     63  56  78 CALM      30.01S
RICHMOND       MOCLDY    65  58  78 CALM      29.98R
RALEIGH        MOCLDY    69  63  81 E5        29.96S

$$

ANZ530>537-180300-
MARINE OBSERVATIONS

STATION/POSITION TIME  TEMP    WIND        PRES
                       AIR SEA DIR/SP/G
                 (UTC) (F)     (DEG/KT/KT) (MB)
THOMAS PT LIGHT  0200   70 75  130/  5/  6 1016.0S
BALT KEY BRIDGE  0200   70     160/  4/  5 1014.7S
COVE POINT       0200   69     110/  8/ 10 1014.8S
LEWISETTA        0200   66 75  230/  2/  3 1014.7R
SOLOMONS ISLAND  0200      77                N/A
PINEY POINT      0200           90/  3/  4   N/A

$$




USA.gov is the U.S. government's official web portal to all federal, state and local government web resources and services.